Location: Unspecified
(0.0000°N, 0.0000°E)
Time: 04:23:13
(UTC+00:00)

ISS - Pass Details

Date: 03 February 2026
Orbit: 413 x 428 km, 51.6° (Epoch: 18 February)

Event Time Altitude Azimuth Distance (km) Brightness Sun altitude
Rises 18:54:29 0° 327° (NNW) 2,356 0.3 -9.7°
Reaches altitude 10° 18:56:34 10° 328° (NNW) 1,498 -0.8 -10.2°
Maximum altitude 18:59:56 78° 54° (NE) 436 -3.8 -11.0°
Drops below altitude 10° 19:03:20 10° 141° (SE) 1,514 -1.2 -11.9°
Sets 19:05:27 0° 142° (SE) 2,383 -0.1 -12.4°
